Regional Weather Roundup
Issued by NWS

Home | Current Version | Previous Version | Text Only | Print | Product List | Glossary On
Versions: 1 2 3 4 5 6 7 8 9 10 11 12 13 14 15 16 17 18 19 20 21 22 23 24 25 26 27 28 29 30 31 32 33 34 35 36 37 38 39 40 41 42 43 44 45 46 47 48 49 50
000
ASUS44 KBMX 021410
RWRAL

ALABAMA REGIONAL WEATHER ROUNDUP
NATIONAL WEATHER SERVICE BIRMINGHAM AL
900 AM CDT TUE SEP 02 2014

NOTE: "FAIR" INDICATES FEW OR NO CLOUDS BELOW 12,000 FEET
WITH NO SIGNIFICANT WEATHER AND/OR OBSTRUCTIONS TO VISIBILITY.

THE REMARK "TC" DENOTES TEMPERATURE IN DEGREES CELSIUS.

ALZ001>011-014-016>018-020-021500-
NORTH ALABAMA

CITY           SKY/WX    TMP DP  RH WIND       PRES   REMARKS
MUSCLE SHOALS  MOSUNNY   82  73  74 SW7       30.09F
HUNTSVILLE     MOSUNNY   80  72  76 S3        30.10S
DECATUR        SUNNY     81  73  76 SW8       30.10F
HALEYVILLE     FAIR      80  74  82 SW8       30.14S
GADSDEN        SUNNY     79  70  73 SW5       30.11S
$$

ALZ012-013-022-023-030>036-040>044-021500-
WEST CENTRAL ALABAMA

CITY           SKY/WX    TMP DP  RH WIND       PRES   REMARKS
TUSCALOOSA     PTSUNNY   79  74  84 S3        30.10S
$$

ALZ015-024>027-033>036-040>044-021500-
CENTRAL ALABAMA

CITY           SKY/WX    TMP DP  RH WIND       PRES   REMARKS
BIRMINGHAM     MOSUNNY   81  73  76 W9        30.13S
MONTGOMERY     MOSUNNY   83  75  77 CALM      30.11S HX  90
SHELBY CO ARPT MOSUNNY   82  74  76 W5        30.12R
MAXWELL AFB    MOSUNNY   83  75  76 NW2       30.11S HX  91
GREENVILLE     FAIR      83  75  77 CALM      30.11S HX  90
$$

ALZ019-021-028-029-037-038-045>048-021500-
EAST CENTRAL ALABAMA

CITY           SKY/WX    TMP DP  RH WIND       PRES   REMARKS
ANNISTON       SUNNY     81  72  74 CALM      30.12S
ALEXANDER CITY SUNNY     82  73  73 SW3       30.13S
AUBURN         SUNNY     79  70  73 NW3       30.18R
$$

ALZ051>064-021500-
SOUTHWEST ALABAMA

CITY           SKY/WX    TMP DP  RH WIND       PRES   REMARKS
MOBILE         MOSUNNY   84  77  79 CALM      30.10S HX  94
BROOKLEY FIELD MOSUNNY   86  77  74 E5        30.10S HX  97
EVERGREEN      SUNNY     82  76  81 CALM      30.11S
$$

ALZ049-050-065>069-021500-
SOUTHEAST ALABAMA

CITY           SKY/WX    TMP DP  RH WIND       PRES   REMARKS
DOTHAN         MOSUNNY   81  74  79 E5        30.17S
OZARK          SUNNY     83  74  75 CALM      30.12F HX  90
TROY           SUNNY     82  75  79 CALM      30.13S
EUFAULA        NOT AVBL
$$



USA.gov is the U.S. government's official web portal to all federal, state and local government web resources and services.